Voltar ao catálogo

STARLINK-34911

AtivoComunicaçõesVLEO
NORAD 65325·PAYLOAD·🇺🇸 United States

Lançado Aug 27, 2025 de Cape Canaveral Space Force Station

Loading…

Próximas Passagens (próximas 24 horas)

TLE

AtualizadoSource: CelesTrak SupGP

Época: Sep 15, 2026, 03:50 UTC

1 65325C 25189C   26258.16020833  .00012313  00000+0  36421-3 0  2588
2 65325  53.1601  44.3193 0001029  88.9094  96.0865 15.34348910    16

Acompanhe STARLINK-34911 em tempo real com AllMySat

Download on the App Store